DW4589 Weather Reports


time (UTC)temp
F
wind
direction
speed
knots
gust
knots
rain 1hr
in
rain 24hr
in
rain mn
in
humidity
%
barometer
mb
20260505010019 71 254 0.9 7.0 0.00 0.00 0.00 52 1005.3
20260505005507 71 212 1.7 7.0 0.00 0.00 0.00 52 1005.3
20260505005010 71 231 1.7 7.0 0.00 0.00 0.00 51 1005.3
20260505004521 71 215 1.7 7.8 0.00 0.00 0.00 51 1005.4
20260505004003 72 211 1.7 8.7 0.00 0.00 0.00 50 1005.3
20260505003508 72 217 4.3 8.7 0.00 0.00 0.00 49 1005.3
20260505003008 72 233 2.6 7.0 0.00 0.00 0.00 49 1005.3
20260505002503 73 223 2.6 8.7 0.00 0.00 0.00 48 1005.4
20260505002006 73 221 3.5 8.7 0.00 0.00 0.00 48 1005.3
20260505001514 73 188 3.5 8.7 0.00 0.00 0.00 48 1005.5
20260505001009 73 207 3.5 9.6 0.00 0.00 0.00 48 1005.5
20260505000504 73 245 5.2 10.4 0.00 0.00 0.00 48 1005.5
20260505000019 73 214 4.3 12.2 0.00 0.00 0.00 47 1005.5
20260504235506 73 221 5.2 12.2 0.00 0.00 0.00 47 1005.6
20260504235007 74 222 5.2 13.9 0.00 0.00 0.00 47 1005.6
20260504234523 74 243 7.0 13.9 0.00 0.00 0.00 46 1005.7
20260504234008 74 248 4.3 16.5 0.00 0.00 0.00 46 1005.8
20260504233510 74 242 10.4 19.1 0.00 0.00 0.00 45 1005.7
20260504233010 74 264 7.8 19.1 0.00 0.00 0.00 46 1005.8
20260504232501 74 263 5.2 13.9 0.00 0.00 0.00 47 1005.6
20260504232001 74 223 7.0 13.0 0.00 0.00 0.00 49 1005.6
20260504231509 74 146 3.5 13.0 0.00 0.00 0.00 54 1005.7
20260504231005 74 238 3.5 7.0 0.00 0.00 0.00 53 1005.7
20260504230506 73 155 1.7 9.6 0.00 0.00 0.00 55 1005.8
20260504230016 73 227 4.3 8.7 0.00 0.00 0.00 53 1005.8
20260504225509 73 196 1.7 5.2 0.00 0.00 0.00 54 1005.9
20260504225006 73 235 1.7 6.1 0.00 0.00 0.00 54 1006.0
20260504224520 73 210 2.6 7.0 0.00 0.00 0.00 53 1006.1
20260504224005 73 235 1.7 6.1 0.00 0.00 0.00 53 1006.1
20260504223510 74 215 2.6 5.2 0.00 0.00 0.00 53 1006.2
20260504223025 74 233 2.6 7.8 0.00 0.00 0.00 52 1006.2
20260504222509 74 221 2.6 7.8 0.00 0.00 0.00 52 1006.2
20260504222009 74 360 4.3 7.8 0.00 0.00 0.00 50 1006.2
20260504221516 74 360 3.5 7.8 0.00 0.00 0.00 52 1006.3
20260504221005 74 209 2.6 7.0 0.00 0.00 0.00 52 1006.3
20260504220506 73 228 1.7 5.2 0.00 0.00 0.00 51 1006.1
20260504220016 73 163 1.7 7.8 0.00 0.00 0.00 53 1006.4
20260504215506 73 240 2.6 10.4 0.00 0.00 0.00 51 1006.7
20260504215006 73 229 4.3 10.4 0.00 0.00 0.00 50 1006.8
20260504214521 73 276 3.5 9.6 0.00 0.00 0.00 52 1006.8
20260504214008 73 223 4.3 9.6 0.00 0.00 0.00 54 1006.8
20260504213505 73 242 5.2 9.6 0.00 0.00 0.00 50 1006.8
20260504213024 73 236 5.2 10.4 0.00 0.00 0.00 51 1006.9
20260504212511 74 284 4.3 13.0 0.00 0.00 0.00 51 1006.9
20260504212010 73 231 6.1 13.9 0.00 0.00 0.00 51 1007.0
20260504211528 73 237 5.2 13.9 0.00 0.00 0.00 51 1007.0
20260504211006 73 246 5.2 13.0 0.00 0.00 0.00 53 1007.2
20260504210505 73 240 6.1 13.0 0.00 0.00 0.00 52 1007.2
20260504210014 72 360 7.0 13.0 0.00 0.00 0.00 52 1007.2
20260504205509 72 241 6.1 11.3 0.00 0.00 0.00 51 1007.2
20260504205010 72 317 4.3 12.2 0.00 0.00 0.00 54 1007.3
20260504204520 72 251 3.5 12.2 0.00 0.00 0.00 54 1007.4
20260504204007 72 294 5.2 13.0 0.00 0.00 0.00 52 1007.8
20260504203507 72 266 7.8 13.0 0.00 0.00 0.00 52 1007.7
20260504203024 73 222 5.2 11.3 0.00 0.00 0.00 53 1007.7
20260504202509 73 239 7.0 13.0 0.00 0.00 0.00 51 1007.5
20260504202010 73 279 6.1 13.0 0.00 0.00 0.00 55 1007.6
20260504201528 72 291 5.2 9.6 0.00 0.00 0.00 56 1007.6
20260504201011 72 267 4.3 11.3 0.00 0.00 0.00 56 1007.6
20260504200509 71 256 5.2 11.3 0.00 0.00 0.00 61 1007.8
20260504200037 71 238 5.2 10.4 0.00 0.00 0.00 59 1007.8
20260504195504 70 261 4.3 9.6 0.00 0.00 0.00 59 1008.1
20260504195003 70 246 2.6 10.4 0.00 0.00 0.00 59 1008.2
20260504194521 69 163 5.2 10.4 0.00 0.00 0.00 59 1008.2
20260504194013 69 274 3.5 9.6 0.00 0.00 0.00 61 1008.4
20260504193507 68 215 6.1 9.6 0.00 0.00 0.00 60 1008.5
20260504193022 68 236 2.6 6.1 0.00 0.00 0.00 60 1008.2
20260504192507 68 215 3.5 6.1 0.00 0.00 0.00 61 1009.0
20260504192007 67 261 1.7 7.0 0.00 0.00 0.00 62 1009.1
20260504191538 67 257 1.7 7.0 0.00 0.00 0.00 61 1008.6
20260504191009 67 246 2.6 10.4 0.00 0.00 0.00 61 1009.1
20260504190507 67 244 2.6 10.4 0.00 0.00 0.00 61 1009.1
20260504190027 67 255 4.3 13.9 0.00 0.00 0.00 61 1009.5
20260504185511 68 267 3.5 13.9 0.00 0.00 0.00 61 1009.3
20260504185010 68 209 4.3 11.3 0.00 0.00 0.00 59 1009.3
20260504184516 68 258 3.5 14.8 0.00 0.00 0.00 60 1009.2
20260504184007 68 293 5.2 14.8 0.00 0.00 0.00 59 1009.1
20260504183508 68 233 7.8 13.0 0.00 0.00 0.00 57 1009.1
20260504183035 68 264 4.3 14.8 0.00 0.00 0.00 58 1008.7
20260504182509 69 260 7.0 14.8 0.00 0.00 0.00 59 1008.6
20260504182010 69 238 5.2 13.9 0.00 0.00 0.00 58 1008.5
20260504181526 70 218 7.0 13.9 0.00 0.00 0.00 58 1008.4
20260504181010 69 211 9.6 13.9 0.00 0.00 0.00 57 1008.2
20260504180509 69 212 3.5 12.2 0.00 0.00 0.00 61 1008.1
20260504180009 69 225 7.0 12.2 0.00 0.00 0.00 60 1008.1
20260504175504 68 165 3.5 12.2 0.00 0.00 0.00 63 1008.2
20260504175004 68 146 4.3 13.0 0.00 0.00 0.00 62 1008.1
20260504174515 68 235 6.1 13.0 0.00 0.00 0.00 60 1008.3
20260504174004 68 232 4.3 9.6 0.00 0.00 0.00 61 1008.5
20260504173503 68 222 5.2 9.6 0.00 0.00 0.00 61 1008.5
20260504173011 68 218 2.6 8.7 0.00 0.00 0.00 61 1008.3
20260504172507 67 239 4.3 8.7 0.00 0.00 0.00 63 1008.2
20260504172004 67 183 5.2 7.8 0.00 0.00 0.00 62 1008.3
20260504171503 67 244 2.6 7.8 0.00 0.00 0.00 63 1008.5
20260504171008 67 202 3.5 6.1 0.00 0.00 0.00 62 1008.3
20260504170504 66 185 2.6 6.1 0.00 0.00 0.00 62 1008.6
20260504151006 61 242 4.3 7.8 0.00 0.00 0.00 65 1009.3
20260504150506 62 215 4.3 7.8 0.00 0.00 0.00 63 1009.2
20260504141011 59 209 5.2 9.6 0.00 0.00 0.00 65 1009.8
20260504140505 59 232 5.2 8.7 0.00 0.00 0.00 66 1009.8
20260504130506 55 229 1.7 8.7 0.00 0.00 0.00 68 1010.0
20260504110505 50 178 0.0 1.7 0.00 0.00 0.00 69 1009.8
20260504100507 50 192 0.0 1.7 0.00 0.00 0.00 67 1010.1
20260504082003 52 103 0.0 3.5 0.00 0.00 0.00 62 1010.7
20260504081508 52 258 0.0 3.5 0.00 0.00 0.00 62 1010.8
20260504081003 52 198 0.9 3.5 0.00 0.00 0.00 62 1010.7
20260504080503 52 149 1.7 3.5 0.00 0.00 0.00 62 1010.7
20260504050507 51 131 0.0 3.5 0.00 0.00 0.00 62 1012.4
20260504045503 51 161 0.0 3.5 0.00 0.00 0.00 62 1012.5
20260504045003 51 184 0.0 3.5 0.00 0.00 0.00 61 1012.5
20260504044522 52 158 0.9 3.5 0.00 0.00 0.00 61 1012.5
20260504044009 52 118 0.9 2.6 0.00 0.00 0.00 61 1012.6
20260504043506 52 100 0.9 2.6 0.00 0.00 0.00 60 1012.7
20260504043026 52 113 0.9 2.6 0.00 0.00 0.00 60 1012.7
20260504042507 52 103 0.0 2.6 0.00 0.00 0.00 59 1012.7
20260504042006 52 128 0.9 2.6 0.00 0.00 0.00 59 1012.7
20260504041524 53 109 0.9 3.5 0.00 0.00 0.00 59 1012.8
20260504041008 53 147 0.9 3.5 0.00 0.00 0.00 58 1012.9
20260504040508 53 134 0.9 2.6 0.00 0.00 0.00 58 1012.9
20260504040026 53 138 1.7 2.6 0.00 0.00 0.00 58 1012.9
20260504035507 54 163 0.9 3.5 0.00 0.00 0.00 57 1012.9
20260504035011 54 149 1.7 3.5 0.00 0.00 0.00 57 1012.9
20260504034544 54 148 1.7 3.5 0.00 0.00 0.00 56 1013.1
20260504034002 54 157 0.9 3.5 0.00 0.00 0.00 56 1013.1
20260504033507 54 134 0.9 3.5 0.00 0.00 0.00 56 1013.1
20260504033018 54 167 0.0 2.6 0.00 0.00 0.00 56 1013.2
20260504032507 54 121 0.0 3.5 0.00 0.00 0.00 56 1013.1
20260504032011 54 131 0.9 3.5 0.00 0.00 0.00 55 1013.1
20260504031522 55 145 0.9 3.5 0.00 0.00 0.00 55 1013.1
20260504031006 55 177 0.0 3.5 0.00 0.00 0.00 54 1013.2
20260504030509 55 167 0.9 3.5 0.00 0.00 0.00 53 1013.2
20260504030039 55 202 0.9 2.6 0.00 0.00 0.00 53 1013.4
20260504025512 55 173 0.9 2.6 0.00 0.00 0.00 1013.3
20260504025009 55 188 0.0 2.6 0.00 0.00 0.00 53 1013.4
20260504024529 56 199 0.0 2.6 0.00 0.00 0.00 53 1013.4
20260504024007 56 190 0.9 3.5 0.00 0.00 0.00 51 1013.5
20260504023509 56 183 0.0 4.3 0.00 0.00 0.00 51 1013.5
20260504023028 56 162 0.9 4.3 0.00 0.00 0.00 50 1013.5
20260504022502 56 150 0.0 5.2 0.00 0.00 0.00 50 1013.4
20260504022008 57 231 0.9 5.2 0.00 0.00 0.00 49 1013.5
20260504021522 57 176 0.9 2.6 0.00 0.00 0.00 50 1013.4
20260504021008 57 178 0.0 3.5 0.00 0.00 0.00 50 1013.5
20260504020505 57 225 1.7 8.7 0.00 0.00 0.00 47 1013.5
20260504020004 57 194 4.3 8.7 0.00 0.00 0.00 46 1013.4
20260504015503 57 157 0.9 2.6 0.00 0.00 0.00 46 1013.5
20260504015004 57 205 0.9 2.6 0.00 0.00 0.00 46 1013.3
20260504014528 57 232 0.9 2.6 0.00 0.00 0.00 47 1013.2
20260504014006 57 214 0.0 2.6 0.00 0.00 0.00 46 1013.1
20260504013503 57 221 1.7 2.6 0.00 0.00 0.00 45 1013.0
20260504013013 57 184 0.9 6.1 0.00 0.00 0.00 46 1013.1
20260504012503 57 240 1.7 6.1 0.00 0.00 0.00 45 1013.0
20260504012003 57 157 0.0 3.5 0.00 0.00 0.00 47 1013.0
20260504011520 57 150 0.0 1.7 0.00 0.00 0.00 45 1013.0
20260504011007 57 117 0.0 2.6 0.00 0.00 0.00 45 1013.0
20260504010506 57 213 0.0 5.2 0.00 0.00 0.00 46 1012.9